Weather History for Huntsville, AL

Change the Weather History Date:

Monday, April 28, 2014

  Actual Average Record
Temperature  
Mean Temperature 74 °F 65 °F  
Max Temperature 81 °F 77 °F 90 °F (1989)
Min Temperature 66 °F 54 °F 34 °F (1928)
Degree Days  
Heating Degree Days 0 3  
Month to date heating degree days 127 150  
Since 1 July heating degree days 3424 2970  
Cooling Degree Days 9 3  
Month to date cooling degree days 36 52  
Year to date cooling degree days 37 66  
Growing Degree Days 22 (Base 50)    
Moisture  
Dew Point 66 °F    
Average Humidity 79    
Maximum Humidity 90    
Minimum Humidity 67    
Precipitation  
Precipitation 1.14 in 0.16 in 3.50 in (1963)
Month to date precipitation 5.93 4.03  
Year to date precipitation 18.48 18.97  
Snow  
Snow 0.00 in - - ()
Month to date snowfall T  
Since 1 July snowfall 5.2  
Snow Depth 0.00 in    
Sea Level Pressure  
Sea Level Pressure 29.72 in    
Wind  
Wind Speed 13 mph (South)    
Max Wind Speed 37 mph    
Max Gust Speed 46 mph    
Visibility 9 miles    
Events Rain , Thunderstorm    
T = Trace of Precipitation, MM = Missing Value Source: NWS Daily Summary

Daily Weather History Graph

Daily Weather History Graph

Search for Another Location

Airport:

Trip Planner

Search our weather history database for the weather conditions in past years. The results will help you decide how hot, cold, wet, or windy it might be!

Date:

Astronomy

Apr. 28, 2014 Rise Set
Actual Time 6:00 AM CDT 7:29 PM CDT
Civil Twilight 5:33 AM CDT 7:56 PM CDT
Nautical Twilight 5:01 AM CDT 8:28 PM CDT
Astronomical Twilight 4:27 AM CDT 9:02 PM CDT
Moon 5:35 AM CDT (4/28) 7:08 PM CDT (4/28)
Length of Visible Light 14h 22m
Length of Day
13h 29m
Waning Crescent, 0% of the Moon is Illuminated
Apr 28
Waning Crescent
Apr 29
New
May 6
First Quarter
May 14
Full
May 21
Last Quarter

Hourly Weather History & Observations

Time (CDT) Temp. Heat Index Dew Point Humidity Pressure Visibility Wind Dir Wind Speed Gust Speed Precip Events Conditions
12:53 AM 68.0 °F - 62.6 °F 83% 29.81 in 10.0 mi SSE 10.4 mph - N/A   Overcast
1:53 AM 68.0 °F - 63.0 °F 84% 29.80 in 10.0 mi SSE 12.7 mph - N/A   Mostly Cloudy
2:53 AM 68.0 °F - 62.6 °F 83% 29.79 in 10.0 mi SSE 12.7 mph - N/A   Mostly Cloudy
3:53 AM 68.0 °F - 64.0 °F 87% 29.74 in 10.0 mi SSE 15.0 mph - 0.00 in   Mostly Cloudy
4:37 AM 68.0 °F - 64.4 °F 88% 29.76 in 10.0 mi South 15.0 mph - N/A   Mostly Cloudy
4:53 AM 69.8 °F - 64.4 °F 83% 29.77 in 10.0 mi South 10.4 mph - N/A   Overcast
5:53 AM 70.0 °F - 64.9 °F 84% 29.75 in 10.0 mi South 12.7 mph 24.2 mph N/A   Overcast
6:40 AM 69.8 °F - 64.4 °F 83% 29.79 in 7.0 mi South 13.8 mph - 0.00 in Rain Light Rain
6:53 AM 70.0 °F - 66.0 °F 87% 29.77 in 7.0 mi South 13.8 mph - 0.00 in Rain Light Rain
7:25 AM 69.8 °F - 66.2 °F 88% 29.80 in 8.0 mi SSE 15.0 mph 18.4 mph N/A Rain Light Rain
7:53 AM 70.0 °F - 66.0 °F 87% 29.77 in 7.0 mi South 15.0 mph 25.3 mph 0.00 in Rain Light Rain
8:03 AM 69.8 °F - 66.2 °F 88% 29.76 in 7.0 mi SSE 17.3 mph 24.2 mph 0.00 in   Mostly Cloudy
8:53 AM 72.0 °F - 66.9 °F 84% 29.77 in 8.0 mi South 16.1 mph 24.2 mph 0.00 in   Mostly Cloudy
9:44 AM 73.4 °F - 66.2 °F 78% 29.81 in 9.0 mi SSW 13.8 mph 25.3 mph N/A   Mostly Cloudy
9:53 AM 73.9 °F - 66.9 °F 79% 29.79 in 9.0 mi South 17.3 mph 23.0 mph N/A   Overcast
10:23 AM 75.2 °F - 68.0 °F 78% 29.79 in 9.0 mi South 18.4 mph - N/A   Mostly Cloudy
10:53 AM 75.9 °F - 69.1 °F 79% 29.79 in 9.0 mi South 13.8 mph - N/A   Mostly Cloudy
11:45 AM 77.0 °F - 66.2 °F 69% 29.82 in 10.0 mi SSW 13.8 mph 29.9 mph N/A   Mostly Cloudy
11:53 AM 78.1 °F - 66.9 °F 68% 29.80 in 10.0 mi SSW 15.0 mph 23.0 mph N/A   Mostly Cloudy
12:53 PM 79.0 °F - 68.0 °F 69% 29.74 in 10.0 mi South 18.4 mph 24.2 mph N/A   Overcast
1:53 PM 78.1 °F - 66.0 °F 66% 29.72 in 10.0 mi South 20.7 mph 26.5 mph N/A   Overcast
2:53 PM 80.1 °F 82.7 °F 68.0 °F 67% 29.69 in 10.0 mi South 15.0 mph - N/A   Overcast
3:53 PM 78.8 °F - 66.2 °F 65% 29.67 in 10.0 mi South 16.1 mph - N/A   Overcast
4:53 PM 75.9 °F - 66.9 °F 74% 29.63 in 10.0 mi SE 10.4 mph - 0.00 in   Overcast
5:17 PM 75.2 °F - 66.2 °F 73% 29.61 in 10.0 mi SE 16.1 mph - N/A Thunderstorm Thunderstorm
5:53 PM 75.0 °F - 66.9 °F 76% 29.57 in 10.0 mi SE 6.9 mph - 0.00 in Rain , Thunderstorm Light Thunderstorms and Rain
6:53 PM 69.1 °F - 64.9 °F 87% 29.61 in 10.0 mi NNE 6.9 mph - 0.01 in Rain , Thunderstorm Light Thunderstorms and Rain
7:53 PM 71.1 °F - 66.0 °F 84% 29.65 in 4.0 mi Variable 5.8 mph - 0.06 in Rain , Thunderstorm Heavy Thunderstorms and Rain
8:32 PM 73.4 °F - 68.0 °F 83% 29.60 in 7.0 mi SSE 27.6 mph 43.7 mph 0.06 in Rain , Thunderstorm Light Thunderstorms and Rain
8:53 PM 73.0 °F - 68.0 °F 84% 29.60 in 5.0 mi South 26.5 mph 39.1 mph 0.08 in Rain , Thunderstorm Thunderstorms and Rain
9:46 PM 73.4 °F - 66.2 °F 78% 29.64 in 10.0 mi SSW 15.0 mph 23.0 mph 0.01 in Rain Light Rain
9:53 PM 73.0 °F - 66.0 °F 79% 29.63 in 10.0 mi SSW 13.8 mph 24.2 mph 0.01 in Rain Light Rain
10:15 PM 71.6 °F - 64.4 °F 78% 29.67 in 8.0 mi SSW 15.0 mph 25.3 mph 0.02 in Rain , Thunderstorm Light Thunderstorms and Rain
10:51 PM 69.8 °F - 64.4 °F 83% 29.68 in 10.0 mi South 11.5 mph - 0.06 in Rain Light Rain
10:53 PM 70.0 °F - 64.9 °F 84% 29.66 in 10.0 mi South 10.4 mph - 0.06 in   Overcast
11:53 PM 68.0 °F - 64.9 °F 90% 29.65 in 8.0 mi South 5.8 mph - 0.15 in Rain Light Rain